Regional Weather Roundup
Issued by NWS

Home | Current Version | Previous Version | Text Only | Print | Product List | Glossary On
Versions: 1 2 3 4 5 6 7 8 9 10 11 12 13 14 15 16 17 18 19 20 21 22 23 24 25 26 27 28 29 30 31 32 33 34 35 36 37 38 39 40 41 42 43 44 45 46 47 48 49 50
000
ASUS44 KJAN 302310
RWRMS

MISSISSIPPI HOURLY WEATHER ROUNDUP
NATIONAL WEATHER SERVICE JACKSON MS
600 PM CDT SAT MAY 30 2015

NOTE: "FAIR: INDICATES FEW OR NO CLOUDS BELOW 12,000 FEET WITH NO
SIGNIFICANT WEATHER AND/OR OBSTRUCTIONS TO VISIBILITY.

MSZ001>002-007>008-010>013-018>021-025>028-034>036-310000-
NORTHWEST MISSISSIPPI

CITY           SKY/WX    TMP DP  RH WIND       PRES   REMARKS
CLARKSDALE       N/A     75  72  88 CALM      29.98S
CLEVELAND      FAIR      73  70  89 S8        29.97F
GREENWOOD      CLOUDY    70  66  87 E6        30.02R FOG
GREENVILLE     CLOUDY    74  69  85 S10       29.97F
OLIVE BRANCH   PTSUNNY   81  70  69 SW12      29.98F
OXFORD         FAIR      66  64  94 SE3       30.03S
TUNICA         MOCLDY    81  66  61 W5        29.98F
$$

MSZ003>006-009-014>017-022>024-029>033-037>039-310000-
NORTHEAST MISSISSIPPI

CITY           SKY/WX    TMP DP  RH WIND       PRES   REMARKS
COLUMBUS AFB   CLOUDY    77  70  80 NW5       30.04R
CORINTH        FAIR      75  66  73 S7        30.00S
GOLDN TRIANGLE PTSUNNY   79  68  69 NW7       30.03R
STARKVILLE     LGT RAIN  70  68  94 W7        30.07R
TUPELO         TSTM      69  62  78 NW7G17    30.04R
$$

MSZ040-058-310000-
CENTRAL MISSISSIPPI

CITY           SKY/WX    TMP DP  RH WIND       PRES   REMARKS
JACKSON INTL   TSTM      70  67  90 NW3       30.04S
JACKSON HAWKNS LGT RAIN  70  67  90 NE3       30.04S
MERIDIAN KEY   MOSUNNY   83  64  52 S5        30.02R
MERIDIAN NAS   PTSUNNY   83  66  56 S3        30.02R
RAYMOND        FAIR      70  64  83 CALM      30.03R
VICKSBURG      CLOUDY    73  69  87 E8        30.00S
$$

MSZ059>079-310000-
SOUTH MISSISSIPPI

CITY           SKY/WX    TMP DP  RH WIND       PRES   REMARKS
BROOKHAVEN     TSTM      70  70 100 NW12G25   30.09R
HATTIESBURG    MOSUNNY   79  72  79 CALM      30.02R
MCCOMB         TSTM      79  71  76 W5        30.00R
NATCHEZ        CLOUDY    73  70  88 CALM      29.99F
PINE BELT      MOSUNNY   81  66  61 S3        30.04R
$$

MSZ080>082-310000-
COASTAL MISSISSIPPI

CITY           SKY/WX    TMP DP  RH WIND       PRES   REMARKS
BAY ST LOUIS   MOSUNNY   82  63  51 MISG      30.01F
BILOXI         MOSUNNY   82  66  57 S8        30.01F
PASCAGOULA     MOSUNNY   81  68  64 SE8       30.01F
GULFPORT       MOSUNNY   82  67  60 SE9       30.01S
$$


USA.gov is the U.S. government's official web portal to all federal, state and local government web resources and services.